Location: Asheville, NC
(35.6000°N, 82.5500°W)
Time: 18:40:19
(UTC-04:00)

nSIGHT-1 - Pass Details

Date: 17 March 2018
Orbit: 380 x 386 km, 51.6° (Epoch: 20 June)

Event Time Altitude Azimuth Distance (km) Brightness Sun altitude
Exits shadow 05:28:02 15° 31° (NNE) 1,162 ? -26.8°
Drops below altitude 10° 05:29:51 10° 66° (ENE) 1,417 ? -26.5°
Sets 05:32:33 0° 91° (E) 2,266 ? -26.0°
